Location: Macksville High School
(37.9611°N, 99.9654°W)
Time: 00:43:52
(UTC+00:00)

Cosmos 1898 Rocket - Pass Details

Date: 17 January 2021
Orbit: 754 x 783 km, 74.0° (Epoch: 07 March)

Event Time Altitude Azimuth Distance (km) Brightness Sun altitude
Exits shadow 12:11:14 - 350° (N) 2,795 6.2 -19.9°
Reaches altitude 10° 12:12:36 10° 354° (N) 2,289 5.8 -19.7°
Maximum altitude 12:17:34 46° 68° (ENE) 1,010 4.5 -18.7°
Drops below altitude 10° 12:22:31 10° 141° (SE) 2,272 6.7 -17.8°
Sets 12:24:57 0° 147° (SSE) 3,194 7.4 -17.3°
